Wind_Speed
30 29 25 28 29 32 32 33 35 37 39 45 49 52 56 57 58 56 59 67 69 73 74 77 77 76 69 68 70 69 71 71
30 26 27 28 30 32 35 38 44 43 45 49 52 55 62 58 63 61 64 65 66 65 70 70 69 67 65 66 70 71 73 76
26 31 36 35 33 31 32 36 40 48 46 49 44 47 57 63 56 63 68 66 65 65 65 68 66 65 67 70 73 75 77 77
29 29 31 39 31 32 38 36 36 38 38 43 47 50 48 58 64 62 60 64 65 67 65 62 62 66 71 74 77 80 81 81
33 35 36 37 41 39 38 38 38 40 44 47 49 52 50 53 57 60 60 62 60 57 58 61 65 69 72 72 69 69 73 76
38 40 43 44 44 45 42 44 49 51 51 48 52 54 54 53 54 56 54 54 55 59 61 64 68 71 72 72 72 75 77 76
40 42 45 47 49 48 46 46 46 46 47 48 46 44 48 50 49 49 53 58 60 63 66 69 72 73 74 74 74 72 75 77
39 39 37 38 38 38 38 38 40 42 37 34 36 40 46 49 49 54 60 62 64 67 70 70 73 74 75 75 75 75 79 82
40 39 34 36 37 38 38 41 38 34 31 33 39 42 51 53 57 62 66 64 66 68 70 72 69 69 72 77 81 83 84 86
36 38 38 37 39 41 39 35 31 30 33 39 44 49 52 57 63 63 63 63 67 70 68 67 69 72 75 80 84 86 88 92
38 40 42 42 40 36 35 36 31 34 40 43 47 53 57 59 61 62 64 67 69 67 66 70 74 79 84 86 87 90 93 97
40 38 36 35 34 36 36 35 33 37 42 45 50 54 54 58 61 64 67 67 69 68 69 74 79 83 85 86 91 96 99 103
35 36 36 34 34 35 35 35 34 40 45 50 53 54 57 60 62 64 67 70 74 74 77 81 85 85 88 92 96 100 103 106
37 37 35 33 32 32 30 31 35 39 47 51 51 56 61 63 64 68 71 74 76 78 82 84 88 89 94 97 101 105 107 110
36 36 32 30 30 29 32 36 41 44 48 52 56 60 63 68 70 74 75 77 80 81 86 87 90 95 99 103 105 107 110 110
38 32 29 29 29 32 36 41 46 50 51 56 59 62 67 73 77 78 80 81 83 86 87 92 96 101 104 105 107 111 110 114
34 32 28 30 33 37 41 46 50 53 57 59 63 67 71 74 77 80 82 83 85 88 94 97 102 104 107 108 111 109 113 118
33 33 34 36 39 43 47 50 54 58 61 64 68 72 73 76 79 80 82 86 89 94 97 101 104 108 110 111 111 113 118 121
35 37 40 43 45 48 51 54 58 61 64 67 69 71 75 77 79 82 86 90 95 97 101 104 107 111 110 111 115 117 119 121
Wind_Direction
226 238 246 252 257 261 257 255 255 260 258 257 257 261 261 260 263 272 279 278 285 284 283 287 287 290 294 296 297 297 298 297
232 239 254 259 259 252 254 252 246 254 261 263 262 267 260 259 258 274 274 280 287 287 285 290 291 295 294 296 299 299 297 295
234 245 248 253 254 257 260 263 260 264 269 267 273 269 262 260 269 271 272 277 284 289 290 292 294 296 298 298 299 296 296 298
246 254 251 247 255 255 257 261 263 266 270 269 267 266 269 262 267 272 279 285 287 287 291 294 297 297 298 298 298 297 298 297
254 256 258 260 260 264 263 267 273 273 274 276 276 274 278 277 276 282 284 285 287 290 292 295 296 297 298 299 300 300 300 299
256 256 258 263 262 260 265 275 278 277 275 284 284 284 283 283 282 283 285 288 290 295 296 295 296 297 298 300 300 299 299 299
258 261 263 265 261 266 267 272 275 276 280 282 282 282 282 282 283 288 293 295 295 295 294 295 295 297 299 299 302 303 301 300
267 274 271 276 273 274 274 275 276 278 277 282 275 275 279 284 284 292 295 294 293 293 293 293 295 298 301 304 304 301 301 301
271 274 271 273 276 274 275 278 277 276 274 275 268 272 279 283 286 289 292 292 293 291 292 295 299 302 303 304 305 303 301 302
268 270 270 269 270 274 274 270 265 266 266 265 268 275 280 284 286 288 290 292 292 294 297 302 303 304 304 305 305 305 306 307
271 272 273 273 272 271 272 268 254 256 261 263 272 279 283 287 288 290 292 293 294 298 303 303 304 305 307 307 309 310 310 310
269 269 267 268 271 271 269 268 259 263 270 277 278 281 285 288 292 292 292 296 301 303 302 301 305 306 307 309 311 310 310 309
268 267 267 269 270 270 269 266 270 274 275 277 279 282 291 293 291 297 301 301 301 302 303 305 307 309 310 311 311 310 309 310
272 273 276 280 277 268 270 275 274 272 278 283 281 288 294 295 300 300 300 300 300 302 305 308 310 310 311 311 310 311 311 309
275 277 282 275 266 271 275 273 270 272 281 289 287 293 298 299 299 296 298 301 304 307 309 310 310 312 312 312 312 312 311 311
281 279 264 260 264 267 268 268 275 282 285 285 292 299 298 298 299 301 302 304 307 308 309 310 312 312 312 312 311 311 312 313
276 272 267 265 268 271 275 278 283 287 290 296 295 294 293 296 298 301 303 305 307 309 311 312 311 312 312 311 312 312 314 314
272 273 274 275 277 279 283 288 290 292 292 292 292 293 295 297 300 302 304 307 310 312 311 310 311 312 311 312 312 314 314 313
270 272 273 274 277 281 284 285 286 287 288 289 293 295 297 300 302 304 307 310 311 311 310 312 311 311 312 312 313 313 314 313
Height
10641 10644 10647 10651 10654 10655 10656 10657 10658 10660 10661 10659 10659 10660 10661 10660 10658 10656 10652 10647 10644 10641 10636 10631 10625 10620 10616 10611 10605 10598 10592 10585
10638 10641 10643 10645 10648 10650 10651 10652 10653 10654 10654 10653 10652 10653 10652 10651 10650 10646 10642 10638 10634 10628 10622 10618 10614 10608 10603 10596 10592 10585 10578 10572
10634 10637 10638 10640 10642 10643 10643 10644 10646 10647 10646 10645 10643 10643 10642 10641 10638 10635 10632 10627 10622 10616 10610 10606 10600 10594 10588 10583 10579 10571 10564 10556
10630 10632 10633 10634 10635 10636 10637 10638 10638 10637 10635 10635 10633 10632 10630 10629 10627 10624 10619 10614 10608 10604 10598 10593 10587 10582 10576 10571 10564 10555 10548 10541
10625 10626 10626 10628 10628 10627 10627 10626 10626 10626 10625 10625 10623 10619 10619 10617 10615 10611 10607 10601 10597 10592 10587 10581 10575 10570 10563 10555 10549 10541 10532 10524
10619 10621 10622 10623 10623 10622 10623 10621 10618 10618 10617 10614 10610 10607 10607 10606 10603 10599 10596 10591 10586 10581 10574 10568 10562 10555 10548 10541 10534 10526 10516 10506
10611 10613 10614 10615 10615 10616 10618 10615 10610 10609 10607 10604 10600 10596 10594 10595 10592 10589 10584 10579 10573 10567 10560 10555 10548 10541 10532 10525 10517 10509 10499 10489
10603 10605 10607 10606 10605 10606 10608 10604 10602 10598 10596 10596 10592 10589 10585 10584 10581 10578 10573 10566 10560 10554 10548 10542 10535 10526 10515 10506 10499 10492 10481 10470
10597 10599 10598 10598 10596 10598 10598 10596 10591 10590 10589 10587 10585 10582 10577 10574 10570 10567 10561 10554 10548 10541 10535 10527 10519 10511 10501 10492 10481 10472 10461 10450
10589 10590 10589 10590 10590 10588 10588 10587 10583 10582 10583 10581 10578 10574 10568 10565 10560 10555 10549 10542 10534 10527 10520 10511 10502 10494 10486 10475 10463 10450 10438 10425
10581 10581 10580 10580 10580 10580 10580 10578 10575 10575 10574 10573 10569 10564 10560 10554 10547 10541 10535 10527 10518 10511 10504 10494 10485 10476 10465 10453 10439 10426 10414 10401
10573 10572 10571 10570 10571 10571 10569 10567 10566 10565 10563 10561 10558 10553 10549 10542 10535 10528 10520 10510 10501 10495 10488 10479 10470 10459 10446 10432 10419 10405 10390 10377
10562 10562 10562 10563 10563 10561 10560 10559 10557 10555 10553 10549 10545 10540 10535 10529 10522 10512 10503 10495 10486 10479 10471 10461 10449 10438 10424 10412 10398 10384 10370 10353
10552 10552 10552 10552 10551 10549 10550 10550 10549 10545 10540 10535 10531 10526 10520 10511 10505 10497 10490 10483 10474 10464 10453 10441 10428 10416 10405 10391 10376 10359 10343 10327
10543 10543 10543 10542 10541 10541 10540 10539 10537 10533 10529 10524 10518 10513 10505 10495 10489 10482 10474 10465 10455 10444 10431 10420 10408 10395 10381 10366 10351 10334 10318 10299
10532 10534 10532 10532 10535 10532 10530 10527 10523 10519 10517 10512 10505 10497 10489 10481 10471 10464 10456 10447 10435 10424 10413 10400 10385 10371 10357 10343 10328 10311 10291 10273
10522 10522 10524 10524 10523 10521 10518 10514 10510 10506 10500 10495 10489 10483 10477 10468 10459 10450 10438 10429 10418 10405 10390 10376 10362 10347 10334 10318 10302 10286 10267 10248
10512 10513 10513 10512 10509 10506 10503 10500 10495 10490 10485 10481 10474 10468 10461 10452 10442 10431 10421 10409 10397 10382 10368 10355 10340 10323 10307 10292 10276 10261 10242 10220
10504 10503 10501 10498 10496 10494 10491 10487 10483 10478 10473 10467 10460 10451 10442 10433 10423 10412 10400 10387 10374 10361 10347 10333 10319 10299 10282 10266 10249 10234 10216 10194